Location: Brompton
(51.4000°N, 0.5333°E)
Time: 04:12:22
(UTC+00:00)

Cosmos 1125 Rocket - Pass Details

Date: 11 May 2021
Orbit: 758 x 779 km, 74.0° (Epoch: 13 June)

Event Time Altitude Azimuth Distance (km) Brightness Sun altitude
Exits shadow 23:26:47 30° 127° (SE) 1,345 4.4 -20.2°
Maximum altitude 23:27:52 33° 102° (ESE) 1,267 4.4 -20.2°
Drops below altitude 10° 23:32:30 10° 40° (NE) 2,304 6.6 -20.3°
Sets 23:35:03 0° 31° (NNE) 3,232 7.6 -20.3°
